Location: Bettgenhausen
(50.6463°N, 7.5681°E)
Time: 06:18:52
(UTC+00:00)

Meteor 2-4 Rocket - Pass Details

Date: 27 February 2020
Orbit: 799 x 908 km, 81.2° (Epoch: 09 April)

Event Time Altitude Azimuth Distance (km) Brightness Sun altitude
Rises 18:47:49 0° 348° (NNW) 3,529 7.2 -16.8°
Reaches altitude 10° 18:50:17 10° 350° (N) 2,593 6.4 -17.2°
Maximum altitude 18:56:14 75° 76° (ENE) 943 3.7 -18.1°
Drops below altitude 10° 19:02:10 10° 162° (SSE) 2,586 6.0 -19.0°
Enters shadow 19:03:43 - 164° (SSE) 3,173 6.4 -19.2°
